Showing default

KUIPER-00370, 68919

Orbit data source: Space-Track

KUIPER-00370, 68919 is a payload satellite owned by Kuiper Systems (US) in LEO that was launched on Thu, 30 Apr 2026 UTC via an ARIANE 64 launch vehicle from the French Guiana (FRGUI). Payload-class satellites include a variety of spacecraft equipped with specific instruments for various scientific and technological missions. These include communications satellites like Starlink; space stations such as the ISS; scientific satellites like the Hubble; Earth observation satellites from companies like Planet Labs, Umbra, and HawkEye 360; GPS; miniature CubeSats for education and research; and military/defense satellites.

Loading next visibility...
Identifier
68919, 2026-098A
Orbit
LEO
Country
Flag of USUS
Related business
Manufacturer
Kuiper Systems
Mission
Operational spacecraft
Bus & Motor
KUIPER, Unknown motor
Mass
~490 kg wet, ~490 kg dry
Launch date (UTC)
2026-04-30 (3 weeks ago)
Launch vehicle
ARIANE 64
Launch site
French Guiana (FRGUI)
Object type
Payload
Rocket body
Debris
Shape & HBR
Unknown
Radar Cross Section
RCS unknown

Expand to show TLE details & history
Last TLE update: 9 hours ago

TLE from 9 hours ago
0 KUIPER-00370
1 68919U 26098A   26140.58335648  .00043001  00000-0  14211-2 0  9992
2 68919  51.8714 201.0654 0015708  57.1984 267.0802 15.30834749  4041
Epoch: 2026-05-20T14:00Z
TLE epoch observation values (Epoch: 2026-05-20T14:00:01.999Z)
Latitude
-27.66793°
Longitude
88.65844°
Altitude
482 km
Speed
7.624 km/s
True Right ascension
11h 47m 37s
True Declination
-27° 31' 16"
Sunlit
Object was in full shadow at epoch
Visualization orbit readout
Latitude
Unknown
Longitude
Unknown
Altitude
Unknown
Speed
Unknown
Apparent Right ascension
Unknown
Apparent Declination
Unknown
Sunlit
N/A
Visualization observer readout
Local Sidereal Time
08:08:08
Azimuth
Unknown
Elevation
Unknown
Doppler factor
Unknown
Orbital elements
Apogee altitude
484.549 km
Perigee altitude
463.023 km
Semi-major axis
6,851.923 km
Eccentricity
0.00157
Inclination
51.8714°
RAAN
201.0654°
Arg. of periapsis
57.1984°
True anomaly
266.90045°
Mean anomaly
267.0802°
Eccentric anomaly
266.99032°
Mean motion
3.8267 °/min
Orbital period
94.08 mins
BSTAR
0.0014211
Loading maneuver chart data...
Computing Atmospheric mass density...
Loading historical data...
Loading historical data...
Loading historical data...
Loading historical data...
Loading historical data...
Loading historical data...
Loading historical data...

Documentation

Showing up to 5 results
|